Wind_Speed
28 28 28 28 28 28 28 28 28 28 27 27 28 28 28 29 30 30 31 31 32 32 31 32 33 33 33 35 36 36 36 36 36 36 35 35 35 36
26 26 26 27 27 27 27 27 28 27 27 28 28 28 29 30 30 30 31 31 30 30 30 31 32 33 33 33 34 34 33 34 34 33 33 34 34 34
25 25 25 25 25 25 26 27 26 27 28 28 28 28 29 29 29 29 29 28 29 29 29 30 31 31 31 31 32 32 32 32 31 31 32 32 32 32
22 22 22 23 23 24 24 24 25 26 27 26 26 27 26 27 27 27 26 26 27 27 28 28 29 29 30 30 30 30 30 29 29 30 30 30 30 30
20 20 20 20 21 21 22 23 24 24 23 22 21 21 21 23 23 24 24 25 26 26 27 27 27 28 28 28 28 28 28 28 28 28 28 28 28 29
18 17 17 18 19 19 19 19 20 20 18 18 17 18 19 20 20 22 23 23 23 24 25 25 26 26 26 26 26 26 26 26 26 26 26 27 27 26
15 15 15 15 15 15 14 15 15 16 16 16 16 17 17 18 19 20 21 21 21 22 23 24 24 24 24 24 24 24 24 24 24 24 25 25 25 24
14 14 13 13 13 12 12 12 13 13 14 14 15 15 17 18 18 18 18 19 20 21 22 22 22 22 22 22 22 22 22 22 23 23 23 23 22 22
12 11 11 12 12 11 11 12 12 12 13 13 14 15 16 16 17 17 18 18 18 19 20 20 21 20 20 20 20 20 20 20 20 20 20 20 20 19
9 9 9 9 9 10 10 11 11 11 11 12 13 14 14 15 15 15 16 17 17 18 18 18 18 17 17 17 17 18 18 19 18 18 18 18 17 17
7 7 6 7 7 9 9 9 9 10 10 10 11 11 12 12 13 14 14 14 15 15 15 15 14 14 15 16 16 16 16 16 17 17 16 16 16 16
6 7 6 7 7 7 7 7 8 8 8 9 9 10 10 11 11 11 12 12 12 12 12 12 12 13 14 14 14 14 14 15 15 15 15 16 16 16
5 5 5 5 5 5 6 6 6 7 7 7 7 8 8 8 8 8 8 8 9 9 10 10 11 11 12 12 13 13 14 14 15 15 15 16 16 16
4 4 4 4 4 4 4 4 4 4 4 4 4 5 5 5 5 5 6 6 7 8 8 9 9 10 11 12 12 13 13 14 14 15 16 16 16 16
3 3 3 3 3 3 2 1 1 1 2 2 3 3 3 4 4 5 5 6 6 7 8 9 9 10 11 11 12 13 13 14 14 15 16 16 15 15
3 3 3 4 3 3 2 2 1 1 1 2 2 3 3 4 5 5 6 6 7 7 8 9 10 10 11 11 12 13 13 13 14 14 15 15 16 16
5 5 5 5 5 5 4 4 4 4 4 5 5 5 5 5 5 6 6 7 7 8 9 10 10 11 11 11 13 13 13 13 14 15 15 16 16 17
8 8 8 7 7 7 7 7 7 7 7 6 6 6 6 7 7 7 7 8 9 9 10 11 11 12 12 13 14 14 14 14 15 16 16 16 17 18
10 10 10 10 10 10 9 9 8 8 7 7 7 7 7 7 7 8 8 9 10 10 11 12 12 13 14 15 15 15 16 16 16 17 17 18 18 19
13 13 13 12 11 11 10 10 9 9 8 8 8 8 8 8 8 9 9 10 11 11 12 13 13 14 14 15 16 17 17 17 18 18 18 19 19 20
14 14 13 13 12 12 11 11 10 10 10 9 9 9 9 9 9 10 10 11 11 12 13 14 14 15 16 16 17 18 19 19 19 20 20 20 21 21
15 14 13 13 13 12 12 12 11 11 11 10 10 10 10 11 11 11 11 12 12 13 14 15 16 16 17 18 19 19 20 21 22 22 23 23 23 23
15 14 14 13 13 13 13 12 12 12 11 11 11 11 11 11 11 12 12 13 13 14 15 16 17 18 19 20 20 20 21 22 23 24 25 26 26 26
Wind_Direction
262 261 261 261 258 255 254 254 256 257 260 261 258 258 259 261 263 265 266 268 269 270 273 275 276 278 280 282 283 284 286 286 287 288 289 290 290 290
262 261 261 261 258 255 254 254 256 257 257 258 259 257 258 260 262 263 264 266 269 272 274 275 277 278 280 283 285 286 287 287 287 288 289 290 290 291
260 259 259 257 256 254 253 253 254 255 255 256 259 259 258 259 260 262 264 268 270 273 275 276 277 278 281 282 284 285 286 287 288 289 289 290 291 291
260 259 258 256 253 251 250 250 251 253 254 254 257 257 259 261 262 263 266 269 270 272 274 276 278 280 282 284 285 286 286 288 288 289 290 291 291 293
259 256 254 256 254 251 250 250 250 252 252 252 255 257 260 260 261 265 268 270 271 272 275 279 281 283 283 284 285 286 287 288 289 290 291 292 294 296
255 252 251 253 253 254 254 252 250 250 250 251 253 258 262 264 267 271 273 273 274 277 279 281 282 283 284 285 286 287 289 289 290 291 293 295 296 297
251 249 250 250 250 252 253 252 249 251 251 252 255 260 266 270 272 274 275 275 276 278 280 281 283 284 286 287 288 290 291 292 293 294 295 297 298 299
251 249 248 247 245 246 247 248 250 251 252 255 258 263 266 269 271 272 273 275 277 280 283 285 286 287 289 289 291 292 293 294 296 297 298 299 299 300
253 248 243 240 243 244 244 246 250 251 253 256 261 266 269 271 272 273 274 277 280 284 286 288 288 288 290 292 293 295 297 299 300 302 302 302 302 303
249 240 238 239 239 239 239 243 246 251 256 261 262 265 270 273 274 275 278 281 284 287 289 290 291 292 292 294 297 299 302 303 304 305 306 306 306 306
235 232 232 229 232 234 241 243 247 253 260 264 266 270 274 275 278 279 282 285 288 290 291 294 295 296 297 300 302 303 304 305 306 307 308 309 310 310
227 226 229 230 233 236 238 244 251 257 263 269 271 276 277 280 283 285 287 290 292 294 298 302 302 303 305 306 306 307 308 309 311 311 312 313 313 314
225 231 233 234 234 236 238 248 258 264 270 273 276 281 285 289 291 292 295 299 302 306 309 311 312 312 312 312 312 312 312 312 312 313 314 315 315 315
218 232 235 230 228 230 239 250 256 261 270 279 286 297 303 307 310 314 316 317 319 321 323 324 323 323 321 319 318 317 316 315 315 316 317 317 317 317
200 206 212 208 202 197 198 210 233 268 284 301 314 325 336 343 344 343 341 339 339 338 336 335 333 331 328 325 323 322 320 319 320 320 320 320 320 319
149 153 154 147 136 126 119 108 90 64 36 33 31 25 19 14 8 3 359 356 352 348 344 340 337 335 333 332 331 330 329 327 326 326 325 323 321 319
132 123 119 117 115 110 102 97 93 84 76 70 61 51 42 33 27 21 15 9 1 355 352 349 347 344 342 340 338 336 334 331 329 328 327 325 323 321
116 109 106 105 105 101 98 95 91 86 79 71 62 55 49 44 38 32 25 17 10 3 357 354 350 348 345 342 340 338 335 333 330 328 325 323 321 320
107 104 102 101 98 95 92 89 86 81 74 68 61 56 50 44 37 30 22 15 9 4 -0 356 352 348 345 342 340 337 335 333 331 328 326 324 322 320
105 103 100 97 94 91 88 85 81 76 71 67 63 56 48 40 32 24 17 11 7 4 1 358 355 350 346 342 340 338 337 335 332 330 327 325 323 321
103 100 97 94 91 88 84 81 77 74 70 66 59 50 42 34 27 21 15 10 7 5 1 358 354 350 348 345 342 339 336 334 331 329 326 324 322 320
101 98 95 91 88 84 81 78 75 72 67 60 53 45 39 33 29 24 18 14 10 5 1 356 353 349 345 342 340 338 335 333 331 328 325 322 321 319
99 97 92 89 86 82 79 76 73 69 63 56 49 43 38 34 29 24 19 14 9 3 359 354 350 347 344 341 338 336 333 331 329 327 324 321 320 318
Height
5784 5785 5786 5786 5788 5789 5790 5792 5793 5794 5795 5796 5797 5798 5798 5798 5798 5798 5798 5798 5797 5796 5795 5793 5792 5790 5788 5786 5784 5782 5779 5776 5772 5769 5766 5762 5759 5755
5777 5778 5778 5779 5780 5781 5782 5784 5785 5787 5788 5789 5789 5790 5790 5790 5790 5790 5790 5790 5789 5788 5787 5785 5784 5782 5780 5778 5775 5773 5770 5766 5763 5760 5757 5753 5750 5746
5770 5770 5771 5772 5772 5774 5775 5776 5778 5779 5781 5781 5782 5782 5782 5782 5782 5782 5782 5782 5781 5780 5779 5777 5775 5773 5771 5769 5766 5764 5761 5758 5755 5752 5748 5745 5742 5738
5762 5763 5764 5765 5766 5767 5768 5769 5770 5772 5773 5774 5774 5774 5775 5775 5775 5775 5775 5774 5773 5772 5771 5769 5767 5765 5763 5761 5758 5755 5753 5750 5747 5744 5741 5737 5734 5731
5756 5757 5758 5759 5759 5760 5761 5763 5764 5765 5766 5767 5767 5768 5768 5768 5769 5768 5768 5767 5766 5765 5763 5761 5760 5758 5755 5753 5750 5748 5745 5742 5739 5736 5733 5730 5727 5724
5750 5751 5752 5753 5754 5755 5756 5757 5758 5759 5760 5761 5761 5762 5762 5762 5762 5762 5761 5760 5759 5758 5756 5754 5752 5750 5748 5745 5743 5741 5738 5735 5732 5729 5726 5723 5720 5717
5745 5746 5747 5748 5749 5750 5751 5752 5753 5754 5755 5756 5756 5757 5757 5757 5756 5755 5755 5753 5752 5751 5749 5747 5745 5743 5741 5739 5736 5734 5732 5729 5726 5723 5720 5718 5715 5712
5740 5741 5742 5743 5744 5745 5746 5747 5748 5749 5750 5751 5751 5752 5751 5751 5750 5750 5749 5748 5746 5745 5743 5741 5739 5737 5735 5733 5731 5728 5726 5723 5721 5718 5715 5712 5709 5706
5736 5737 5738 5739 5740 5741 5742 5743 5744 5745 5746 5747 5747 5747 5747 5746 5745 5744 5743 5742 5740 5739 5737 5735 5733 5731 5729 5727 5725 5723 5721 5718 5715 5713 5710 5707 5704 5701
5733 5734 5735 5736 5737 5738 5739 5740 5741 5741 5742 5742 5743 5742 5742 5741 5740 5739 5738 5737 5735 5734 5732 5730 5728 5726 5725 5723 5720 5718 5716 5713 5711 5708 5706 5703 5700 5697
5731 5731 5732 5733 5734 5735 5736 5737 5737 5738 5738 5738 5738 5738 5737 5737 5736 5735 5734 5732 5731 5730 5728 5726 5724 5722 5720 5719 5716 5714 5712 5710 5707 5705 5702 5699 5697 5694
5728 5729 5730 5731 5732 5733 5734 5734 5735 5735 5735 5735 5735 5734 5734 5733 5732 5731 5730 5729 5727 5726 5724 5723 5721 5719 5717 5715 5713 5711 5709 5706 5704 5702 5699 5696 5694 5691
5727 5727 5728 5729 5730 5730 5731 5732 5732 5732 5732 5732 5732 5731 5731 5730 5729 5728 5727 5726 5724 5723 5721 5720 5718 5716 5714 5712 5710 5708 5706 5704 5701 5699 5696 5693 5691 5688
5725 5726 5726 5727 5728 5728 5729 5729 5730 5730 5730 5730 5730 5729 5729 5728 5727 5726 5725 5724 5722 5721 5719 5718 5716 5714 5712 5710 5708 5706 5703 5701 5698 5696 5693 5690 5687 5685
5724 5724 5725 5726 5727 5727 5728 5728 5728 5729 5729 5729 5728 5728 5727 5726 5725 5724 5723 5722 5721 5719 5718 5716 5714 5713 5711 5708 5706 5704 5701 5698 5696 5693 5690 5687 5684 5681
5723 5724 5725 5725 5726 5727 5727 5728 5728 5728 5728 5728 5727 5727 5726 5726 5725 5724 5723 5721 5720 5718 5717 5715 5713 5711 5709 5707 5704 5701 5699 5696 5693 5691 5688 5684 5681 5678
5724 5725 5725 5726 5726 5727 5727 5728 5728 5728 5728 5728 5727 5727 5726 5725 5724 5723 5722 5721 5719 5718 5716 5714 5712 5709 5707 5705 5702 5699 5697 5694 5691 5688 5685 5682 5679 5676
5725 5726 5726 5727 5727 5728 5728 5728 5729 5729 5729 5729 5728 5728 5727 5726 5725 5724 5722 5721 5719 5717 5715 5713 5711 5708 5706 5703 5701 5698 5695 5692 5689 5685 5682 5679 5676 5673
5726 5727 5728 5728 5729 5729 5729 5730 5730 5730 5730 5730 5729 5728 5727 5726 5725 5724 5723 5721 5719 5717 5715 5712 5710 5707 5705 5702 5699 5696 5693 5689 5686 5683 5679 5676 5673 5669
5729 5730 5730 5731 5731 5731 5732 5732 5732 5732 5731 5731 5730 5729 5728 5727 5726 5725 5723 5721 5719 5717 5714 5712 5709 5706 5703 5700 5697 5694 5690 5687 5683 5680 5676 5673 5669 5665
5732 5733 5733 5734 5734 5734 5734 5734 5733 5733 5733 5732 5731 5730 5729 5728 5726 5725 5723 5721 5719 5716 5714 5711 5708 5705 5702 5699 5695 5692 5688 5684 5680 5677 5673 5669 5665 5661
5735 5736 5736 5737 5737 5736 5736 5736 5736 5735 5735 5734 5733 5732 5730 5729 5727 5725 5723 5721 5719 5716 5714 5711 5707 5704 5701 5697 5693 5689 5685 5681 5677 5673 5668 5665 5661 5656
5738 5739 5739 5739 5739 5739 5739 5739 5738 5737 5737 5736 5734 5733 5731 5730 5728 5726 5724 5721 5719 5716 5713 5710 5706 5703 5699 5695 5691 5687 5682 5678 5674 5670 5665 5660 5655 5651